Location: Unspecified
(0.0000°N, 0.0000°E)
Time: 12:02:22
(UTC+00:00)

FALCON 9 R/B - Visible Passes

Search period start: 22 October 2021 00:00
Search period end: 01 November 2021 00:00
Orbit: 312 x 1106 km, 81.0° (Epoch: 21 October)

Date Brightness Start Highest point End Pass type
(mag) Time Alt. Az. Time Alt. Az. Time Alt. Az.
22 Oct ? 03:31:28 10° SSE 03:37:10 32° E 03:42:04 10° NE visible
22 Oct ? 05:12:07 10° SW 05:16:41 21° W 05:20:45 10° NW visible
23 Oct ? 04:16:32 10° SSW 04:23:00 66° W 04:28:18 10° N visible
24 Oct ? 03:23:02 10° SSE 03:28:54 38° E 03:33:47 10° NNE visible
24 Oct ? 05:04:45 10° SW 05:08:15 16° W 05:11:27 10° NW visible
25 Oct ? 02:33:14 10° ESE 02:34:26 11° E 02:35:36 10° E visible
25 Oct ? 04:08:28 10° SSW 04:14:34 52° W 04:17:22 26° NNW visible
26 Oct ? 03:14:34 10° SSE 03:19:41 43° ESE 03:19:41 43° ESE visible
26 Oct ? 04:57:52 10° WSW 04:58:31 11° WSW 04:58:31 11° WSW visible
27 Oct ? 02:23:29 10° SE 02:23:40 10° SE 02:23:40 10° SE visible
27 Oct ? 04:00:21 10° SSW 04:02:32 21° SW 04:02:32 21° SW visible
28 Oct ? 03:06:03 10° S 03:07:09 15° S 03:07:09 15° S visible
